Weather History for Lancaster, OH

Change the Weather History Date:

Thursday, September 26, 2013

  Actual Average Record
Temperature  
Mean Temperature 62 °F -  
Max Temperature 80 °F 71 °F 89 °F (1998)
Min Temperature 46 °F 46 °F 31 °F (1940)
Degree Days  
Heating Degree Days 2    
Growing Degree Days 12 (Base 50)    
Moisture  
Dew Point 48 °F    
Average Humidity 76    
Maximum Humidity 100    
Minimum Humidity 30    
Precipitation  
Precipitation 0.00 in - - ()
Sea Level Pressure  
Sea Level Pressure 30.02 in    
Wind  
Wind Speed 1 mph (NE)    
Max Wind Speed 9 mph    
Max Gust Speed -    
Visibility 7 miles    
Events      
Averages and records for this station are not official NWS values.
T = Trace of Precipitation, MM = Missing Value Source: NWS Daily Summary

Daily Weather History Graph

Daily Weather History Graph

Search for Another Location

Airport:

Trip Planner

Search our weather history database for the weather conditions in past years. The results will help you decide how hot, cold, wet, or windy it might be!

Date:

Astronomy

Sep. 26, 2013 Rise Set
Actual Time 7:22 AM EDT 7:20 PM EDT
Civil Twilight 6:55 AM EDT 7:47 PM EDT
Nautical Twilight 6:23 AM EDT 8:18 PM EDT
Astronomical Twilight 5:52 AM EDT 8:50 PM EDT
Moon No Moon Rise 2:12 PM EDT (9/26)
Length of Visible Light 12h 52m
Length of Day
11h 58m
Waning Gibbous, 55% of the Moon is Illuminated
Sep 26
Waning Gibbous
Sep 26
Last Quarter
Oct 4
New
Oct 11
First Quarter
Oct 18
Full

Hourly Weather History & Observations

Time (EDT) Temp. Dew Point Humidity Pressure Visibility Wind Dir Wind Speed Gust Speed Precip Events Conditions
12:53 AM 48.0 °F 46.9 °F 96% 29.95 in 5.0 mi Calm Calm - N/A   Clear
1:53 AM 48.9 °F 46.9 °F 93% 29.95 in 6.0 mi Calm Calm - N/A   Mostly Cloudy
2:53 AM 48.9 °F 46.9 °F 93% 29.94 in 8.0 mi Calm Calm - N/A   Partly Cloudy
3:53 AM 48.0 °F 46.0 °F 93% 29.95 in 6.0 mi Calm Calm - N/A   Partly Cloudy
4:53 AM 46.0 °F 45.0 °F 96% 29.95 in 5.0 mi Calm Calm - N/A   Clear
5:53 AM 46.0 °F 44.1 °F 93% 29.97 in 8.0 mi Calm Calm - N/A   Clear
6:53 AM 46.0 °F 44.1 °F 93% 30.00 in 4.0 mi Calm Calm - N/A   Clear
7:34 AM 46.4 °F 44.6 °F 93% 30.01 in 2.5 mi Calm Calm - N/A   Clear
7:49 AM 46.4 °F 44.6 °F 93% 30.01 in 2.0 mi Calm Calm - N/A   Clear
7:53 AM 46.0 °F 45.0 °F 96% 30.02 in 2.5 mi Calm Calm - N/A   Clear
8:01 AM 46.4 °F 46.4 °F 100% 30.02 in 4.0 mi Calm Calm - N/A   Clear
8:15 AM 50.0 °F 48.2 °F 94% 30.02 in 2.0 mi Calm Calm - N/A   Clear
8:26 AM 51.8 °F 51.8 °F 100% 30.02 in 1.8 mi Calm Calm - N/A   Clear
8:37 AM 53.6 °F 51.8 °F 94% 30.03 in 2.5 mi Calm Calm - N/A   Clear
8:53 AM 55.9 °F 53.1 °F 90% 30.03 in 5.0 mi Calm Calm - N/A   Clear
9:53 AM 63.0 °F 54.0 °F 72% 30.04 in 10.0 mi Calm Calm - N/A   Clear
10:53 AM 69.1 °F 53.1 °F 57% 30.04 in 10.0 mi North 4.6 mph - N/A   Clear
11:53 AM 73.9 °F 53.1 °F 48% 30.04 in 10.0 mi Variable 5.8 mph - N/A   Clear
12:53 PM 75.0 °F 51.1 °F 43% 30.04 in 10.0 mi Variable 4.6 mph - N/A   Clear
1:53 PM 75.9 °F 50.0 °F 40% 30.03 in 10.0 mi Variable 3.5 mph - N/A   Clear
2:53 PM 79.0 °F 48.9 °F 35% 30.02 in 10.0 mi NE 8.1 mph - N/A   Clear
3:53 PM 78.1 °F 48.9 °F 36% 30.01 in 10.0 mi Variable 3.5 mph - N/A   Clear
4:53 PM 79.0 °F 45.0 °F 30% 30.02 in 10.0 mi ENE 9.2 mph - N/A   Clear
5:53 PM 78.1 °F 46.0 °F 32% 30.03 in 10.0 mi NE 8.1 mph - N/A   Clear
6:53 PM 73.0 °F 46.9 °F 39% 30.05 in 10.0 mi ENE 3.5 mph - N/A   Clear
7:53 PM 62.1 °F 51.1 °F 67% 30.06 in 10.0 mi Calm Calm - N/A   Clear
8:53 PM 54.0 °F 50.0 °F 86% 30.07 in 10.0 mi Calm Calm - N/A   Clear
9:53 PM 50.0 °F 48.0 °F 93% 30.09 in 10.0 mi Calm Calm - N/A   Clear
10:53 PM 50.0 °F 48.0 °F 93% 30.10 in 10.0 mi Calm Calm - N/A   Clear
11:53 PM 48.9 °F 46.9 °F 93% 30.09 in 10.0 mi Calm Calm - N/A   Clear